Regional Weather Roundup
Issued by NWS

Home | Current Version | Previous Version | Graphics & Text | Print | Product List | Glossary On
Versions: 1 2 3 4 5 6 7 8 9 10 11 12 13 14 15 16 17 18 19 20 21 22 23 24 25 26 27 28 29 30 31 32 33 34 35 36 37 38 39 40 41 42 43 44 45 46 47 48 49 50
000
ASUS44 KMEG 290110
RWRTN
TENNESSEE HOURLY STATE WEATHER ROUNDUP
NATIONAL WEATHER SERVICE MEMPHIS TN
700 PM CST WED JAN 28 2015

TNZ002-004-019-021-049-052-054-088>092-290200-
WEST TENNESSEE

CITY           SKY/WX    TMP DP  RH WIND       PRES   REMARKS
MEMPHIS INTL   MOCLDY    55  32  41 S12       30.09F
NWS MEMPHIS      N/A     54 N/A N/A MISG        N/A
JACKSON        PTCLDY    50  28  42 S9        30.10F
DYERSBURG      PTCLDY    48  23  37 SE9       30.09F
UNION CITY     CLEAR     45  30  57 SE9       30.07F
PARIS          CLEAR     43  27  52 SE9       30.10F
LEXINGTON      CLEAR     46  25  42 SE6       30.14F
SAVANNAH       CLEAR     45  30  57 SE5       30.16F
$$

TNZ008-025-027-028-033-062-065-066-290200-
NORTH MIDDLE TENNESSEE

CITY           SKY/WX    TMP DP  RH WIND       PRES   REMARKS
NASHVILLE      PTCLDY    45  25  45 S5        30.20F
CLARKSVILLE    PTCLDY    41  27  57 SE8       30.15F
SMYRNA         CLEAR     37  27  68 CALM      30.21F
COOKEVILLE     CLEAR     37  23  56 CALM      30.21R
CROSSVILLE     PTCLDY    33  11  39 CALM      30.21F
$$

TNZ061-075-076-078-094-096-097-290200-
SOUTH MIDDLE TENNESSEE

CITY           SKY/WX    TMP DP  RH WIND       PRES   REMARKS
FAYETTEVILLE   CLEAR     43  25  49 MISG      30.21R
TULLAHOMA      CLEAR     37  27  65 CALM      30.21S
WINCHESTER     CLEAR     43  21  42 S3        30.23R
MCMINNVILLE    CLEAR     36  27  69 CALM      30.21R
COLUMBIA       CLEAR     45  28  53 SE3       30.18S
SHELBYVILLE    CLEAR     37  30  75 CALM      30.22S
$$

TNZ017-018-042-046-047-290200-
NORTHEAST TENNESSEE

CITY           SKY/WX    TMP DP  RH WIND       PRES   REMARKS
TRI CITIES     PTCLDY    29  20  69 CALM      30.26S
ELIZABETHTON   CLEAR     27  21  80 E7        30.26S WCI  19
$$

TNZ012-013-036-069-073-074-290200-
CENTRAL EAST TENNESSEE

CITY           SKY/WX    TMP DP  RH WIND       PRES   REMARKS
KNOXVILLE      CLEAR     37  17  44 CALM      30.25S
OAK RIDGE      CLEAR     34  19  54 CALM      30.27S
GATLINBURG     CLEAR     30  19  64 CALM      30.25S
MORRISTOWN     CLEAR     34  19  55 NE3       30.26R
$$

TNZ083-085-099-290200-
SOUTHEAST TENNESSEE

CITY           SKY/WX    TMP DP  RH WIND       PRES   REMARKS
CHATTANOOGA    PTCLDY    39  20  46 CALM      30.26R
$$

SKY/WX REPORTED AS FAIR MEANS FEW OR NO CLOUDS BELOW
12 THOUSAND FEET.




USA.gov is the U.S. government's official web portal to all federal, state and local government web resources and services.